Skip Page Navigation
NASA JPL Caltech
NASA Logo - Jet Propulsion Laboratory + View the NASA Portal
+ Center for Near-Earth Object Studies
JPL Home Earth Solar System Stars & Galaxies Technology
JPL Solar System Dynamics
BODIES ORBITS EPHEMERIDES TOOLS PHYSICAL DATA DISCOVERY FAQ SITE MAP
IMPORTANT: The SSD Announcement email list is now available. Major changes are coming in the near future, including possible hostname and/or URL changes. To be notified of such changes, subscribe to this email list.

Please visit this page for more details.


JPL Small-Body Database Browser
Search: [ help ]  
1049 Gotho (1925 RB)
Classification: Main-belt Asteroid          SPK-ID: 2001049
Ephemeris | Orbit Diagram | Orbital Elements | Mission Design | Physical Parameters | Discovery Circumstances | Close-Approach Data ]

[ show orbit diagram ]
Orbital Elements at Epoch 2458600.5 (2019-Apr-27.0) TDB
Reference: JPL 54 (heliocentric ecliptic J2000)
 Element Value Uncertainty (1-sigma)   Units 
e .1362451136948271 4.1791e-08  
a 3.094287250838233 1.2603e-08 au
q 2.672705732543324 1.3214e-07 au
i 15.10679361405212 4.1742e-06 deg
node 342.8507039455741 1.6127e-05 deg
peri 41.13749710639643 2.1717e-05 deg
M 43.77850404206465 1.4038e-05 deg
tp 2458358.732574874095
(2018-Aug-28.23257487)
7.7272e-05 TDB
period 1988.10523451639
5.44
1.2147e-05
3.326e-08
d
yr
n .1810769338312067 1.1063e-09 deg/d
Q 3.515868769133142 1.4321e-08 au
  Orbit Determination Parameters
   # obs. used (total)      2013  
   data-arc span      34187 days (93.60 yr)  
   first obs. used      1925-09-14  
   last obs. used      2019-04-21  
   planetary ephem.      DE431  
   SB-pert. ephem.      SB431-N16  
   condition code      0  
   norm. resid. RMS      .44522  
   source      ORB  
   producer      Otto Matic  
   solution date      2019-Jul-12 18:03:18  

Additional Information
 Earth MOID = 1.69206 au 
 Jupiter MOID = 2.02451 au 
 T_jup = 3.157 
[ show covariance matrix ]

Ephemeris | Orbit Diagram | Orbital Elements | Mission Design | Physical Parameters | Discovery Circumstances | Close-Approach Data ]

Physical Parameter Table
Parameter Symbol Value Units Sigma Reference Notes
absolute magnitude H 10.4   n/a MPO279524  
diameter diameter 56.296 km 0.204 urn:nasa:pds:neowise_diameters_albedos::2.0[mainbelt] (http://adsabs.harvard.edu/abs/2014ApJ...791..121M)  
rotation period rot_per 8.470 h n/a LCDB (Rev. 2019-January); Warner et al., 2009 Published Reference List:
[Albers, K.; Kragh, K.; Monnier, A.; Pligge, Z.; et al. (2010) Minor Planet Bull. 37, 152-158.]
[Ditteon, R.; Trent, L. (2018) Minor Planet Bull. 45, 328-329.]
geometric albedo albedo 0.008   0.001 urn:nasa:pds:neowise_diameters_albedos::2.0[mainbelt] (http://adsabs.harvard.edu/abs/2014ApJ...791..121M)  

1049 Gotho (1925 RB)          Discovered 1925-Sep-14 by Reinmuth, K. at Heidelberg
Reference: DISCOVERY.DBLast Updated: 2003-08-29

[ show close-approach data ]
Alternate Designations
 1925 RB = A906 DD 
Ephemeris | Orbit Diagram | Orbital Elements | Mission Design | Physical Parameters | Discovery Circumstances | Close-Approach Data ]
ABOUT SSD CREDITS/AWARDS PRIVACY/COPYRIGHT GLOSSARY LINKS
FirstGov 2019-Oct-18 15:18 UT
(server date/time)  
NASA Home Page
Site Manager:   Ryan S. Park
Webmaster  Alan B. Chamberlin